Change the Weather History Date:

Sunday, November 27, 2011

  Actual Average Record
Temperature  
Mean Temperature 36 °F -  
Max Temperature 43 °F 52 °F 72 °F (2006)
Min Temperature 28 °F 32 °F 18 °F (2013)
Degree Days  
Heating Degree Days 30    
Moisture  
Dew Point 23 °F    
Average Humidity 61    
Maximum Humidity 81    
Minimum Humidity 45    
Precipitation  
Precipitation 0.00 in - - ()
Sea Level Pressure  
Sea Level Pressure 30.25 in    
Wind  
Wind Speed 13 mph (NNW)    
Max Wind Speed 18 mph    
Max Gust Speed 28 mph    
Visibility 10 miles    
Events      
Averages and records for this station are not official NWS values.
T = Trace of Precipitation, MM = Missing Value Source: NWS Daily Summary

Daily Weather History Graph

Daily Weather History Graph

Search for Another Location

Airport or City:

Trip Planner

Search our weather history database for the weather conditions in past years. The results will help you decide how hot, cold, wet, or windy it might be!

Date:

Astronomy

Nov. 27, 2011 Rise Set
Actual Time 7:13 AM CST 5:06 PM CST
Civil Twilight 6:44 AM CST 5:34 PM CST
Nautical Twilight 6:12 AM CST 6:06 PM CST
Astronomical Twilight 5:41 AM CST 6:38 PM CST
Moon 9:38 AM CST (11/27) 7:46 PM CST (11/27)
Length of Visible Light 10h 50m
Length of Day
9h 53m
Waxing Crescent, 8% of the Moon is Illuminated
Nov 27
Waxing Crescent
Dec 2
First Quarter
Dec 10
Full
Dec 17
Last Quarter
Dec 24
New

Hourly Weather History & Observations

Time (CST) Temp. Windchill Dew Point Humidity Pressure Visibility Wind Dir Wind Speed Gust Speed Precip Events Conditions
12:52 AM 37.9 °F 29.2 °F 23.0 °F 55% 30.22 in 10.0 mi NNW 15.0 mph - N/A   Clear
1:52 AM 37.0 °F 28.1 °F 23.0 °F 57% 30.22 in 10.0 mi NNW 15.0 mph - N/A   Clear
2:52 AM 36.0 °F 27.1 °F 24.1 °F 62% 30.22 in 10.0 mi NNW 13.8 mph - N/A   Clear
4:52 AM 34.0 °F 25.0 °F 24.1 °F 67% 30.23 in 10.0 mi NNW 12.7 mph - N/A   Mostly Cloudy
5:52 AM 34.0 °F 24.2 °F 21.9 °F 61% 30.24 in 10.0 mi NNW 15.0 mph - N/A   Overcast
6:52 AM 33.1 °F 22.2 °F 21.0 °F 61% 30.26 in 10.0 mi NNW 17.3 mph - N/A   Overcast
7:52 AM 33.1 °F 22.6 °F 19.9 °F 59% 30.27 in 10.0 mi NNW 16.1 mph - N/A   Clear
8:52 AM 35.1 °F 24.8 °F 19.9 °F 54% 30.29 in 10.0 mi NNW 17.3 mph 25.3 mph N/A   Clear
9:52 AM 37.0 °F 27.0 °F 21.9 °F 54% 30.30 in 10.0 mi NNW 18.4 mph 27.6 mph N/A   Clear
10:52 AM 37.9 °F 30.5 °F 23.0 °F 55% 30.30 in 10.0 mi NNW 11.5 mph 21.9 mph N/A   Overcast
11:52 AM 39.9 °F 31.4 °F 24.1 °F 53% 30.29 in 10.0 mi North 16.1 mph 23.0 mph N/A   Partly Cloudy
12:52 PM 42.1 °F 35.7 °F 24.1 °F 49% 30.25 in 10.0 mi NNW 11.5 mph 20.7 mph N/A   Clear
1:52 PM 42.1 °F 35.7 °F 24.1 °F 49% 30.23 in 10.0 mi NNW 11.5 mph 19.6 mph N/A   Clear
2:52 PM 43.0 °F 36.4 °F 23.0 °F 45% 30.23 in 10.0 mi NNW 12.7 mph - N/A   Clear
3:52 PM 43.0 °F 36.0 °F 23.0 °F 45% 30.24 in 10.0 mi NNW 13.8 mph - N/A   Clear
4:52 PM 41.0 °F 35.2 °F 24.1 °F 51% 30.24 in 10.0 mi North 9.2 mph - N/A   Clear
5:52 PM 37.0 °F 31.6 °F 24.1 °F 59% 30.25 in 10.0 mi NNW 6.9 mph - N/A   Clear
6:52 PM 35.1 °F 31.0 °F 25.0 °F 67% 30.25 in 10.0 mi North 4.6 mph - N/A   Clear
7:52 PM 33.1 °F - 25.0 °F 72% 30.25 in 10.0 mi Calm Calm - N/A   Clear
8:52 PM 30.9 °F - 25.0 °F 79% 30.25 in 10.0 mi Calm Calm - N/A   Clear
9:52 PM 30.0 °F - 24.1 °F 79% 30.24 in 10.0 mi Calm Calm - N/A   Clear
10:52 PM 28.0 °F 22.8 °F 23.0 °F 81% 30.23 in 10.0 mi NNW 4.6 mph - N/A   Clear
11:52 PM 28.0 °F 21.7 °F 21.9 °F 78% 30.23 in 10.0 mi NNW 5.8 mph - N/A   Clear